Total_Precipitation_Accumulation
4.12 4.07 4.01 4.16 3.80 3.86 4.23 4.29 3.92 3.95 4.02 3.78 3.41 3.29 3.32 3.18 3.17 3.07 3.21 3.39 3.23 3.35 3.75 3.72 3.58 3.33 3.14 2.83 2.60 2.46 2.35 2.23 1.96 1.59 1.43 1.35 1.30 1.23 1.22 1.25 1.15 1.05 0.99
4.06 4.15 4.11 4.14 3.71 3.56 3.74 3.89 3.80 3.97 3.94 3.83 3.40 3.16 3.13 3.30 3.31 3.12 3.20 3.52 3.44 3.15 3.31 3.57 3.76 3.75 3.53 3.32 3.04 2.77 2.61 2.48 2.11 1.63 1.38 1.33 1.29 1.26 1.35 1.43 1.29 1.12 1.03
4.11 4.28 4.22 4.03 3.87 3.80 3.81 3.77 3.81 4.11 3.84 3.68 3.49 3.39 3.33 3.34 3.16 3.12 3.18 3.44 3.12 2.95 2.96 3.08 3.42 3.71 3.96 3.98 3.69 3.41 3.04 2.68 2.23 1.82 1.52 1.37 1.26 1.24 1.35 1.42 1.40 1.25 1.05
3.81 4.19 4.00 3.69 3.88 3.98 4.04 4.00 3.95 4.08 4.10 4.15 4.03 3.83 3.59 3.46 2.84 2.79 2.89 2.98 3.11 2.69 2.83 3.06 3.16 3.29 3.85 4.40 4.60 4.50 3.87 3.20 2.64 2.14 1.83 1.60 1.53 1.49 1.44 1.42 1.44 1.38 1.20
3.10 3.30 3.24 3.25 3.28 3.48 3.41 3.18 3.58 3.80 4.03 4.19 3.93 3.75 3.37 3.23 2.96 2.82 2.88 2.59 2.74 2.77 2.82 2.89 3.08 3.12 3.63 4.54 5.40 5.66 5.16 4.28 3.47 2.75 2.41 2.22 2.06 1.86 1.72 1.62 1.56 1.51 1.37
2.72 2.92 2.73 2.80 2.99 3.24 3.29 3.34 3.57 3.50 3.44 3.62 3.24 3.22 3.17 2.94 2.89 2.85 2.64 2.55 2.56 2.52 2.64 2.85 3.11 2.77 3.30 4.18 5.07 5.56 5.71 5.28 4.45 3.70 3.30 3.01 2.85 2.50 1.99 1.74 1.63 1.56 1.45
2.71 3.01 2.72 3.05 3.07 3.15 3.12 3.03 3.15 3.13 2.89 3.03 3.52 3.48 3.08 2.83 2.83 2.71 2.57 2.66 2.46 2.45 2.65 2.92 3.17 3.21 2.90 2.90 3.46 4.13 5.04 5.66 5.30 4.56 4.07 3.70 3.49 2.99 2.34 2.04 1.80 1.64 1.56
2.59 2.67 2.84 2.68 2.73 2.94 2.84 2.78 3.09 3.08 2.75 2.83 3.34 3.59 3.45 3.47 3.20 2.47 2.42 2.57 2.54 2.57 2.63 2.70 3.04 3.29 3.12 3.33 2.75 2.85 3.92 4.94 5.53 5.47 4.89 4.13 3.56 3.04 2.59 2.40 2.11 1.87 1.77
2.24 2.40 2.50 2.62 2.72 2.62 2.73 2.81 2.87 3.00 2.94 2.77 2.83 3.40 3.42 3.29 3.17 2.84 2.44 2.36 2.55 2.79 2.74 2.76 2.75 2.88 2.95 3.33 3.27 2.88 3.15 3.43 4.56 5.56 5.43 4.49 3.51 2.85 2.58 2.65 2.59 2.20 1.96
2.10 2.03 2.17 2.42 2.56 2.51 2.76 2.50 2.62 2.90 3.03 2.80 2.79 2.85 2.87 2.96 3.13 2.99 2.62 2.30 2.30 2.44 2.59 2.53 2.64 2.79 2.87 3.12 3.30 2.90 2.53 2.50 3.16 4.25 4.85 4.74 3.96 3.09 2.71 2.85 3.19 3.07 2.57
2.07 1.95 2.01 2.23 2.37 2.43 2.54 2.57 2.86 2.81 2.73 2.72 2.73 2.83 2.92 2.89 2.72 2.78 2.79 2.51 2.32 2.15 2.25 2.41 2.58 2.80 2.78 2.89 3.19 2.90 2.67 2.50 2.36 2.64 3.27 3.79 3.91 3.61 3.26 3.32 3.89 4.28 4.10
2.15 2.23 2.18 2.24 2.21 2.24 2.32 2.45 2.69 2.69 2.64 2.69 2.59 2.52 2.77 2.91 2.86 2.89 2.72 2.45 2.27 2.03 2.00 2.11 2.40 2.70 2.81 2.77 2.48 2.44 2.47 2.47 2.30 2.17 2.26 2.56 2.97 3.24 3.44 3.76 4.30 4.89 5.21
1.86 2.12 2.27 2.34 2.35 2.34 2.28 2.39 2.47 2.46 2.52 2.67 2.58 2.46 2.45 2.48 2.66 2.84 2.83 2.41 2.21 1.99 2.16 2.14 2.09 2.20 2.27 2.40 2.45 2.41 2.16 2.18 1.98 1.87 1.90 2.03 2.27 2.56 2.81 3.08 3.56 4.10 4.54
1.56 1.77 2.04 2.15 2.15 2.12 2.11 2.54 2.34 2.28 2.44 2.53 2.45 2.76 2.61 2.37 2.55 2.72 2.81 2.81 2.60 2.44 2.50 2.30 2.01 1.96 2.09 2.21 2.33 2.28 1.91 1.96 1.79 1.66 1.53 1.49 1.57 1.68 1.84 2.07 2.36 2.65 2.96
1.61 1.68 1.73 2.00 2.11 2.06 2.10 2.33 2.28 2.24 2.40 2.40 2.55 2.81 2.75 2.59 2.59 2.60 2.79 3.04 3.22 3.01 2.74 2.43 2.11 1.88 1.95 2.07 2.13 1.84 1.77 2.04 1.85 1.60 1.46 1.41 1.41 1.41 1.46 1.51 1.56 1.65 1.72
1.67 1.72 1.78 1.78 1.89 2.03 2.14 2.28 2.15 2.10 2.24 2.33 2.50 2.66 2.66 2.56 2.61 2.53 2.65 2.91 3.14 3.18 2.81 2.38 2.19 2.00 1.96 1.75 1.89 1.69 1.66 1.84 1.70 1.61 1.51 1.42 1.35 1.36 1.39 1.38 1.33 1.32 1.35
1.61 1.62 1.66 1.72 1.73 1.83 2.10 2.39 2.31 2.30 2.33 2.35 2.38 2.55 2.63 2.81 2.86 2.73 2.71 2.72 2.86 3.04 2.81 2.43 2.26 2.12 1.93 1.74 1.70 1.57 1.49 1.50 1.47 1.55 1.47 1.35 1.23 1.19 1.26 1.27 1.26 1.23 1.16
1.49 1.41 1.48 1.55 1.51 1.62 1.88 2.19 2.36 2.48 2.61 2.58 2.61 2.77 2.79 2.81 2.78 2.69 2.71 2.69 2.70 2.94 2.86 2.55 2.42 2.30 2.08 1.84 1.75 1.67 1.46 1.37 1.42 1.68 1.59 1.40 1.28 1.25 1.23 1.15 1.09 1.08 1.11
1.58 1.57 1.61 1.58 1.70 1.77 1.80 1.97 2.17 2.29 2.42 2.49 2.63 2.68 2.64 2.76 2.67 2.65 2.54 2.52 2.55 2.72 2.95 2.74 2.59 2.58 2.41 2.13 1.98 1.81 1.65 1.65 1.38 1.48 1.54 1.45 1.36 1.28 1.19 1.13 1.11 1.09 1.03
1.65 1.69 1.69 1.72 1.82 1.84 1.80 1.89 2.06 2.19 2.27 2.34 2.47 2.58 2.64 2.64 2.67 2.80 2.66 2.65 2.79 2.91 3.00 2.92 2.78 2.84 2.78 2.55 2.32 2.08 1.88 1.77 1.59 1.33 1.44 1.45 1.42 1.35 1.25 1.15 1.11 1.10 1.09
1.72 1.81 1.87 1.83 1.83 1.74 1.65 1.90 2.05 2.07 2.26 2.32 2.33 2.32 2.42 2.66 2.72 2.75 2.54 2.65 2.86 2.85 2.80 2.81 2.78 2.92 2.93 2.79 2.47 2.18 2.04 2.00 1.84 1.61 1.52 1.36 1.36 1.35 1.36 1.37 1.33 1.27 1.18
1.95 2.06 2.09 2.08 1.98 1.71 1.91 2.00 2.04 2.14 2.25 2.27 2.29 2.24 2.16 2.18 2.27 2.40 2.40 2.42 2.54 2.65 2.73 2.74 2.71 2.79 2.82 2.77 2.64 2.44 2.28 2.17 2.03 1.96 2.00 1.84 1.64 1.62 1.49 1.36 1.44 1.38 1.28
2.14 2.15 2.11 2.14 2.09 2.10 2.12 1.89 1.83 1.80 1.87 1.90 1.91 1.94 1.75 1.66 1.96 2.05 2.23 2.21 2.10 2.13 2.22 2.42 2.51 2.49 2.65 2.75 2.83 2.60 2.50 2.35 2.12 2.11 2.24 2.10 1.92 1.76 1.52 1.44 1.59 1.42 1.35
2.44 2.36 2.28 2.30 2.35 2.33 2.36 2.04 1.91 1.77 1.75 1.72 1.69 1.67 1.70 1.70 1.76 1.94 2.03 2.00 1.92 1.87 1.91 1.92 1.99 2.22 2.45 2.71 2.83 2.77 2.78 2.61 2.31 2.16 2.23 2.18 1.95 1.83 1.60 1.55 1.60 1.46 1.34
2.91 2.79 2.73 2.77 2.77 2.85 2.87 2.50 2.32 2.03 1.92 1.80 1.81 1.88 1.90 1.75 1.81 1.84 1.87 1.83 1.79 1.82 1.87 1.89 1.87 2.01 2.21 2.39 2.67 2.71 2.64 2.56 2.29 2.17 2.20 2.18 1.99 1.98 1.84 1.65 1.52 1.50 1.26
3.32 3.31 3.31 3.33 3.27 3.25 3.24 2.81 2.62 2.32 2.25 2.16 2.17 2.05 1.96 1.76 1.69 1.65 1.65 1.70 1.61 1.60 1.77 1.84 1.82 1.87 1.99 2.15 2.42 2.42 2.38 2.46 2.28 2.11 1.98 2.09 2.07 2.12 2.07 1.75 1.51 1.42 1.30